Location: Mereworth
(51.2500°N, 0.3667°E)
Time: 19:50:08
(UTC+00:00)

Daily predictions for brighter satellites

Satellite Brightness Start Highest point End
(mag) Time Altitude Azimuth Time Altitude Azimuth Time Altitude Azimuth
Cosmos 2084 Rocket 3.4 16:35:00 10° SW 16:39:10 77° SE 16:43:22 10° NE
SMAP 3.3 16:38:24 10° SE 16:42:50 46° ENE 16:47:19 10° N
Cosmos 540 Rocket 3.7 16:38:30 10° NNW 16:43:27 45° ENE 16:48:21 10° SE
Cosmos 2297 Rocket 4.4 16:46:08 10° NNW 16:46:39 10° N 16:47:11 10° N
Cosmos 1869 4.3 16:45:20 10° SE 16:48:05 22° E 16:50:50 10° NE
SWARM A 4.2 16:44:58 10° N 16:48:19 86° E 16:51:38 10° S
YAOGAN 1 4.1 16:47:20 10° E 16:49:44 15° ENE 16:52:08 10° NNE
IGS 5A 3.3 16:45:56 10° SSE 16:49:53 73° ENE 16:53:52 10° N
Cosmos 1763 Rocket 3.5 16:46:47 10° NNW 16:51:58 60° ENE 16:57:03 10° SE
SL-16 R/B 2.6 16:46:15 10° NNE 16:52:34 78° ESE 16:58:49 10° SSW
SAR-Lupe-5 4.4 16:52:00 10° NNE 16:54:35 54° ESE 16:57:11 10° S
Landsat 7 4.1 16:50:36 10° SE 16:55:00 44° ENE 16:59:26 10° N
Cosmos 1340 Rocket 4.5 16:52:38 10° SW 16:56:08 33° WNW 16:59:38 10° N
Timation 1 Rocket 4.3 16:51:33 10° NNW 16:57:32 67° NE 17:03:28 10° SE
RESURS DK-1 2.2 16:53:40 10° NNW 16:57:40 64° NE 17:01:38 10° SE
Cosmos 1140 Rocket 3.5 16:54:32 10° SSW 16:59:40 70° ESE 17:04:49 10° NNE
CZ-4C R/B 3.0 16:56:08 10° W 17:00:35 39° NNW 17:06:18 10° NE
Aureole 3 Rocket 3.8 16:59:00 10° SE 17:01:10 18° E 17:03:29 10° NE
UNK 3.9 17:00:57 10° NNE 17:05:30 56° E 17:10:02 10° S
Meteor 1-28 Rocket 2.9 17:02:18 10° NNE 17:05:42 88° WNW 17:09:03 10° SSW
Meteor 2-12 Rocket 4.4 17:02:27 10° N 17:08:32 62° ENE 17:14:31 10° SSE
Cosmos 1400 Rocket 4.3 17:08:29 10° ESE 17:10:36 15° E 17:11:07 14° ENE
Cosmos 1536 Rocket 4.4 17:07:18 10° N 17:11:07 27° ENE 17:14:53 10° SE
SJ-12 3.7 17:07:35 10° SSE 17:11:18 56° ENE 17:15:02 10° N
Okean 2 Rocket 4.4 17:14:54 10° SE 17:18:01 19° E 17:20:03 14° NE
Cosmos 1269 Rocket 4.2 17:14:03 10° SSW 17:19:18 77° WNW 17:24:37 10° NNE
CORIOLIS 4.3 17:15:37 10° SSE 17:20:59 81° WSW 17:26:22 10° NNW
IRS-1C 4.1 17:17:08 10° SSE 17:22:28 85° ENE 17:27:49 10° NNW
ATLAS CENTAUR R/B 3.1 17:22:21 10° WNW 17:24:50 18° NNW 17:27:19 10° NNE
SL-12 R/B(2) 4.4 17:18:31 10° SSW 17:26:21 63° ESE 17:35:47 11° NE
COSMO-SKYMED 1 3.8 17:26:49 19° E 17:27:19 19° E 17:30:18 10° SE
Resurs 01 Rocket 3.3 17:30:11 16° NE 17:30:11 16° NE 17:32:10 10° NNE
Thor Agena Rocket 4.4 17:24:34 10° S 17:29:44 55° WSW 17:34:55 10° NNW
Cosmos 1943 Rocket 2.3 17:24:37 10° S 17:30:06 58° ESE 17:35:17 12° NE
Cosmos 1782 Rocket 4.2 17:26:53 10° SSW 17:31:15 59° WNW 17:35:38 10° N
Timation 2 Rocket 4.2 17:24:39 10° SSW 17:31:26 65° ESE 17:38:12 10° NE
Cosmos 841 Rocket 3.9 17:27:40 10° NNW 17:32:38 40° NE 17:37:34 10° SE
Cosmos 2233 Rocket 4.3 17:26:52 10° SSW 17:33:09 71° WNW 17:39:31 10° N
Cosmos 2058 2.9 17:29:21 10° N 17:33:16 53° ENE 17:37:10 10° SSE
Cosmos 1300 Rocket 4.5 17:29:27 10° SSW 17:33:42 50° WNW 17:37:59 10° N
Cosmos 2251 Rocket 3.9 17:29:19 10° S 17:34:16 42° ESE 17:38:36 14° NE
BREEZE-M DEB (TANK) 2.8 17:34:34 10° SW 17:37:01 43° SSE 17:39:49 21° E
Cosmos 2082 Rocket 2.1 17:32:13 10° NNW 17:37:52 77° ENE 17:43:28 10° SE
ATLAS 2AS CENTAUR R/B 3.2 17:31:48 10° NW 17:38:10 39° NNE 17:42:14 20° E
Cosmos 1346 Rocket 4.1 17:36:42 10° NNE 17:38:39 20° NE 17:38:39 20° NE
Cosmos 2061 Rocket 4.3 17:34:36 10° SSW 17:40:52 70° WNW 17:47:06 10° N
Cosmos 2278 Rocket 2.2 17:37:58 10° SSW 17:43:35 68° ESE 17:48:32 14° NE
IRAS Rocket 4.3 17:38:43 10° SE 17:44:06 54° ENE 17:49:28 10° N
Cosmos 1602 2.9 17:41:31 10° N 17:44:35 74° E 17:47:38 10° SSE
MOS 1 Rocket 3.0 17:41:49 10° SSE 17:46:09 78° ENE 17:50:44 10° N
Cosmos 1975 Rocket 4.3 17:42:57 10° NNW 17:47:05 43° W 17:51:13 10° SSW
Cosmos 468 Rocket 3.9 17:41:52 10° NNW 17:47:07 89° ENE 17:52:17 10° SSE
AQUARIUS 4.3 17:45:02 10° S 17:49:26 75° WSW 17:53:53 10° NNW
Cosmos 1464 Rocket 4.1 17:44:25 10° SSE 17:50:29 54° E 17:56:32 10° NNE
ARIANE 5 R/B 3.2 17:46:18 10° S 17:51:11 57° WSW 17:56:09 10° NNW
CZ-2D R/B 3.4 17:47:50 10° SSE 17:51:56 62° ENE 17:56:08 10° N
Cosmos 1862 2.9 17:52:05 10° N 17:55:43 67° ENE 17:59:20 10° SSE
USA 215 4.1 17:49:29 10° SE 17:55:48 51° SW 18:02:11 10° WNW
PSLV R/B 3.5 17:53:50 10° SE 17:57:45 51° ENE 18:01:40 10° N
ARIANE 6 FM1 Upper Stage 4.5 17:56:04 10° NW 17:58:49 18° N 17:59:56 16° NNE
Geosat FO 4.2 17:57:42 16° SSE 17:59:49 71° WSW 18:02:42 10° NW
Cosmos 2151 Rocket 3.6 17:56:35 10° S 18:00:59 59° E 18:05:04 12° NNE
Cosmos 1190 Rocket 4.0 17:56:49 10° S 18:02:00 60° ESE 18:05:26 21° NE
ISS -3.8 18:00:05 10° WSW 18:03:25 67° SSE 18:03:52 57° ESE
Cosmos 2034 Rocket 4.2 17:58:36 10° SSE 18:04:29 47° E 18:10:27 10° NNE
Cosmos 1812 2.3 18:02:18 10° SSW 18:05:11 64° WNW 18:06:21 31° N
Cosmos 676 Rocket 4.4 18:00:15 10° S 18:05:11 41° ESE 18:06:43 33° ENE
SKYMED 2 3.5 18:03:51 17° NNE 18:07:07 63° ESE 18:11:26 10° S
Okean 1 Rocket 3.3 18:03:31 10° SSE 18:07:42 45° E 18:08:25 41° ENE
Cosmos 1656 Rocket 4.3 18:03:01 10° SSE 18:07:51 32° ESE 18:08:00 31° ESE
Cosmos 220 Rocket 4.1 18:07:27 10° NNW 18:11:16 45° NE 18:11:16 45° NE
Cosmos 407 Rocket 3.9 18:07:19 10° SW 18:12:26 61° WNW 18:17:08 12° NNE
Sich 1 Rocket 3.7 18:09:01 10° S 18:13:26 53° E 18:14:56 36° NE
COSMOS 2406 3.1 18:07:49 10° NNW 18:13:34 80° ENE 18:19:01 11° SSE
USA 281 3.6 18:11:29 31° E 18:13:42 40° NE 18:19:44 10° NNW
Cosmos 1954 Rocket 4.0 18:09:14 10° S 18:14:25 62° ESE 18:16:53 31° NE
Cosmos 1092 Rocket 4.1 18:09:33 10° N 18:15:38 50° ENE 18:21:37 10° SSE
BlueWalker 3 4.3 18:15:25 10° S 18:15:39 11° SSE 18:15:39 11° SSE
SL-19 R/B 4.0 18:14:05 10° SSE 18:19:17 85° ENE 18:24:34 10° NNW
Cosmos 2026 Rocket 3.9 18:14:40 10° N 18:20:42 59° ENE 18:26:45 10° SSE
SJ 16-02 1.1 18:19:20 10° SSW 18:23:38 76° ESE 18:24:29 55° NE
Cosmos 1072 Rocket 4.4 18:18:04 10° S 18:24:12 85° W 18:30:22 10° N
Cosmos 44 Rocket 3.3 18:19:31 10° SW 18:24:20 77° NW 18:26:14 38° NNE
YAOGAN 1 2.5 18:20:44 10° SSE 18:25:00 84° WSW 18:29:18 10° NNW
SPOT 1/Viking Rocket 3.9 18:21:38 10° S 18:26:47 66° WSW 18:31:59 10° NNW
Cosmos 2344 3.8 18:23:36 10° NW 18:31:22 81° NE 18:38:34 22° SE
Cosmos 2297 Rocket 4.2 18:30:44 10° N 18:33:09 13° NNE 18:33:09 13° NNE
SL-16 R/B 4.5 18:30:31 10° N 18:35:33 26° NW 18:40:34 10° WSW
Meteor 2-3 Rocket 3.6 18:30:55 10° NNW 18:36:40 83° ENE 18:42:18 10° SSE
Spot 4 Rocket 4.4 18:32:29 10° S 18:37:32 62° WSW 18:42:36 10° NNW
Resurs 1-3 3.9 18:35:16 10° S 18:39:32 65° WSW 18:43:50 10° NNW
Nadezhda 4 Rocket 4.5 18:36:50 10° NNW 18:43:02 61° W 18:49:08 10° S
Cosmos 1400 Rocket 3.2 18:41:54 10° SSW 18:45:39 55° WNW 18:45:47 55° WNW
Cosmos 304 Rocket 3.7 18:43:43 10° SSW 18:48:27 85° WNW 18:48:47 77° N
Cosmos 371 Rocket 3.2 18:45:29 10° SSW 18:50:18 85° WNW 18:50:35 78° N
CZ-4C R/B 3.8 18:45:49 10° WNW 18:50:26 26° N 18:51:49 24° NNE
Cosmos 1627 Rocket 4.4 18:47:19 10° N 18:53:29 88° W 18:59:40 10° S
Okean 2 Rocket 3.7 18:51:17 10° SSW 18:55:35 53° WNW 18:57:21 32° NNW
COSMO-SKYMED 1 3.2 19:03:10 50° W 19:03:10 50° W 19:06:56 10° SW
Resurs 01 Rocket 3.2 19:07:36 28° NNW 19:07:36 28° NNW 19:09:44 10° NNW
Geosat 4.3 19:05:27 56° SSW 19:06:14 64° WSW 19:11:14 10° NW
BREEZE-M DEB (TANK) 3.8 19:08:23 10° WSW 19:11:47 73° S 19:11:47 73° S
Cosmos 1943 Rocket 3.6 19:09:06 10° WSW 19:14:09 33° NW 19:16:48 22° N
Cosmos 2227 Rocket 4.5 19:19:19 10° N 19:20:29 12° N 19:20:29 12° N
Cosmos 2278 Rocket 3.8 19:23:12 10° WSW 19:28:07 30° NW 19:30:23 23° N
ATLAS 2AS CENTAUR R/B 2.6 19:22:54 10° NW 19:29:41 82° SW 19:29:41 82° SW
Cosmos 1634 Rocket 4.4 19:29:53 10° SSW 19:42:27 10° N 19:34:50 56° SW
Cosmos 2369 Rocket 4.3 19:31:02 10° SSW 19:31:59 15° SSW 19:31:59 15° SSW
USA 281 3.6 19:58:22 58° W 19:58:22 58° W 20:04:32 10° NNW
SJ 16-02 4.1 19:59:21 10° W 20:01:03 16° WNW 20:01:03 16° WNW
CZ-4C R/B 4.4 20:34:38 10° NW 20:36:46 21° NNW 20:36:46 21° NNW
